Latest Weather Observations for Rottnest Island

IDW60801

Issued at 6:35 pm WST Wednesday 16 April 2014 (issued every 30 minutes, with the page automatically refreshed every 10 minutes)

About weather observations | Map of weather stations | Latest weather observations for WA | Other Formats
Station Details ID: 009193 Name: ROTTNEST ISLAND Lat: -32.01 Lon: 115.50 Height: 43.1 m
Data from the previous 72 hours. | See also: Recent months at Rottnest Island
Date/Time
WST
Temp
°C
App
Temp
°C
Dew
Point
Rel
Hum
%
Delta-T
°C
Wind Press
QNH
hPa
Press
MSL
hPa
Rain
since 9 am
mm
Dir
 
Spd
km/h
Gust
km/h
Spd
kts
Gust
kts
16/06:30pm 18.9 13.9 12.2 65 3.7 S 30 35 16 19 1019.8 - 0.0
16/06:00pm 18.9 14.3 12.2 65 3.7 S 28 35 15 19 1019.9 1019.7 0.0
16/05:30pm 19.2 14.5 12.0 63 4.0 S 28 35 15 19 1019.9 - 0.0
16/05:00pm 19.8 15.0 11.6 59 4.5 SSW 28 35 15 19 1019.9 - 0.0
16/04:30pm 20.2 15.4 11.7 58 4.7 SSW 28 33 15 18 1020.0 - 0.0
16/04:00pm 20.2 15.8 12.9 63 4.1 SSW 28 33 15 18 1020.0 - 0.0
16/03:30pm 20.6 15.9 13.3 63 4.2 S 30 35 16 19 1020.2 - 0.0
16/03:00pm 20.4 16.0 12.9 62 4.2 SSW 28 37 15 20 1020.4 1020.2 0.0
16/02:30pm 20.8 16.4 13.0 61 4.4 SSW 28 35 15 19 1020.4 - 0.0
16/02:00pm 20.8 17.0 13.5 63 4.2 S 26 32 14 17 1020.5 - 0.0
16/01:30pm 20.7 17.6 14.4 67 3.7 S 24 32 13 17 1020.8 - 0.0
16/01:00pm 20.2 17.3 13.9 67 3.6 SSW 22 28 12 15 1021.1 - 0.0
16/12:30pm 19.9 17.5 14.5 71 3.1 S 20 26 11 14 1021.6 - 0.0
16/12:00pm 19.6 17.7 14.2 71 3.1 S 17 24 9 13 1022.0 1021.8 0.0
16/11:30am 19.7 18.4 14.7 73 2.9 S 15 20 8 11 1022.4 - 0.0
16/11:00am 19.8 18.9 14.8 73 2.9 SSE 13 17 7 9 1022.8 - 0.0
16/10:30am 19.6 19.1 14.8 74 2.8 SSE 11 17 6 9 1023.0 - 0.0
16/10:00am 19.5 18.9 14.7 74 2.8 SSE 11 15 6 8 1023.3 - 0.0
16/09:30am 19.3 19.0 15.4 78 2.3 ESE 11 15 6 8 1023.3 - 0.0
16/09:00am 19.3 19.4 15.6 79 2.2 E 9 15 5 8 1023.3 1023.1 1.2
16/08:30am 19.6 18.0 13.8 69 3.3 S 15 19 8 10 1023.2 - 1.2
16/08:00am 19.3 17.5 13.2 68 3.5 S 15 19 8 10 1023.0 - 1.2
16/07:30am 19.0 16.4 13.2 69 3.3 S 19 22 10 12 1022.5 - 1.2
16/07:00am 18.9 16.1 13.3 70 3.2 S 20 24 11 13 1022.3 - 1.2
16/06:30am 18.6 15.0 13.2 71 3.1 S 24 30 13 16 1021.9 - 1.2
16/06:00am 18.6 14.1 13.7 73 2.8 S 30 35 16 19 1021.6 1021.4 1.2
16/05:30am 18.9 14.9 14.2 74 2.7 S 28 33 15 18 1021.9 - 1.2
16/05:00am 19.1 15.0 14.8 76 2.5 S 30 35 16 19 1021.7 - 1.2
16/04:30am 19.0 15.3 15.1 78 2.3 SSE 28 33 15 18 1021.6 - 1.2
16/04:00am 19.1 15.8 15.0 77 2.4 SSE 26 32 14 17 1021.6 - 1.2
16/03:30am 19.0 15.7 14.9 77 2.4 SSE 26 35 14 19 1021.4 - 1.2
16/03:00am 18.9 14.2 14.8 77 2.4 SSE 33 44 18 24 1021.1 1020.9 1.2
16/02:30am 18.8 13.8 15.1 79 2.2 SSE 35 43 19 23 1021.4 - 1.2
16/02:00am 19.1 14.5 16.0 82 1.8 S 35 43 19 23 1021.4 - 1.2
16/01:30am 19.2 15.1 16.4 84 1.7 SSE 33 41 18 22 1021.7 - 1.2
16/01:00am 19.0 14.7 16.8 87 1.3 SSE 35 41 19 22 1021.7 - 1.2
16/12:30am 18.6 14.4 18.1 97 0.3 S 37 50 20 27 1021.7 - 1.2
16/12:00am 18.8 15.7 18.5 98 0.2 S 32 39 17 21 1021.7 1021.5 0.8
 
Date/Time
WST
Temp
°C
App
Temp
°C
Dew
Point
Rel
Hum
%
Delta-T
°C
Wind Press
QNH
hPa
Press
MSL
hPa
Rain
since 9 am
mm
Dir
 
Spd
km/h
Gust
km/h
Spd
kts
Gust
kts
15/11:30pm 19.0 17.0 18.2 95 0.5 S 26 32 14 17 1022.1 - 0.2
15/11:00pm 20.6 18.7 16.8 79 2.3 S 22 28 12 15 1022.2 - 0.0
15/10:30pm 20.4 19.6 15.2 72 3.1 S 13 17 7 9 1022.4 - 0.0
15/10:00pm 20.6 19.5 15.4 72 3.1 S 15 20 8 11 1022.6 - 0.0
15/09:30pm 20.7 18.7 15.0 70 3.4 SSW 19 24 10 13 1022.6 - 0.0
15/09:00pm 21.1 19.3 15.4 70 3.4 SSW 19 24 10 13 1022.7 1022.5 0.0
15/08:30pm 20.6 19.5 15.2 71 3.2 SSW 15 17 8 9 1022.6 - 0.0
15/08:00pm 21.0 18.6 13.9 64 4.1 SSW 19 24 10 13 1022.4 - 0.0
15/07:30pm 20.5 18.4 14.6 69 3.5 SSW 19 24 10 13 1022.5 - 0.0
15/07:00pm 20.4 18.0 13.8 66 3.8 SW 19 22 10 12 1022.2 - 0.0
15/06:30pm 21.0 18.5 14.2 65 4.0 SSW 20 26 11 14 1021.9 - 0.0
15/06:00pm 21.3 18.4 15.2 68 3.6 SSW 24 32 13 17 1021.6 1021.4 0.0
15/05:30pm 21.2 20.0 15.1 68 3.6 SW 15 19 8 10 1021.6 - 0.0
15/05:00pm 21.5 19.1 14.4 64 4.2 SW 20 26 11 14 1021.5 - 0.0
15/04:30pm 21.5 18.3 14.2 63 4.3 SSW 24 28 13 15 1021.4 - 0.0
15/04:00pm 21.6 18.3 14.0 62 4.4 SW 24 30 13 16 1021.3 - 0.0
15/03:30pm 22.4 19.3 13.5 57 5.2 SW 22 30 12 16 1021.2 - 0.0
15/03:00pm 23.5 20.6 13.9 55 5.6 SW 22 26 12 14 1021.2 1021.0 0.0
15/02:30pm 22.8 19.9 14.1 58 5.1 SW 22 28 12 15 1021.2 - 0.0
15/02:00pm 23.3 20.0 14.0 56 5.5 SW 24 30 13 16 1021.1 - 0.0
15/01:30pm 22.7 18.9 13.7 56 5.2 SW 26 33 14 18 1021.1 - 0.0
15/01:00pm 22.8 19.8 13.8 57 5.2 SW 22 28 12 15 1021.3 - 0.0
15/12:30pm 22.5 18.4 13.8 58 5.1 SW 28 35 15 19 1021.6 - 0.0
15/12:00pm 24.5 21.2 15.1 55 5.6 SW 26 33 14 18 1021.7 1021.5 0.0
15/11:30am 22.7 19.4 14.0 58 5.1 SW 24 32 13 17 1021.8 - 0.0
15/11:00am 22.1 19.4 14.5 62 4.5 SW 22 30 12 16 1021.7 - 0.0
15/10:30am 22.4 20.4 14.0 59 4.9 SW 17 26 9 14 1021.7 - 0.0
15/10:00am 22.0 20.4 13.9 60 4.7 SW 15 20 8 11 1021.5 - 0.0
15/09:30am 22.1 20.9 14.0 60 4.7 SSW 13 19 7 10 1021.3 - 0.0
15/09:00am 21.5 20.4 14.2 63 4.2 SW 13 19 7 10 1021.4 1021.2 0.2
15/08:30am 20.6 19.1 14.3 67 3.7 SW 15 19 8 10 1021.2 - 0.2
15/08:00am 20.8 20.2 14.5 67 3.7 SW 11 15 6 8 1021.0 - 0.2
15/07:30am 20.0 18.3 14.8 72 3.0 SW 17 20 9 11 1020.8 - 0.2
15/07:00am 19.8 17.8 15.0 74 2.8 SSW 19 24 10 13 1020.3 - 0.2
15/06:30am 19.4 17.5 15.3 77 2.4 SW 19 22 10 12 1020.1 - 0.2
15/06:00am 19.1 18.0 15.2 78 2.3 SW 15 20 8 11 1019.8 1019.6 0.2
15/05:30am 19.3 18.8 15.8 80 2.1 SW 13 19 7 10 1019.6 - 0.2
15/05:00am 19.3 17.9 15.6 79 2.2 SW 17 20 9 11 1019.5 - 0.2
15/04:30am 19.5 18.7 16.2 81 2.0 SW 15 19 8 10 1019.4 - 0.2
15/04:00am 19.6 18.5 16.3 81 2.0 SW 17 20 9 11 1019.4 - 0.2
15/03:30am 19.6 19.4 16.6 83 1.8 SW 13 17 7 9 1019.6 - 0.2
15/03:00am 19.7 19.0 16.5 82 1.9 WSW 15 19 8 10 1019.5 1019.3 0.2
15/02:30am 19.8 18.7 16.4 81 2.0 SW 17 20 9 11 1019.8 - 0.2
15/02:00am 19.8 19.1 16.3 80 2.1 WSW 15 17 8 9 1019.8 - 0.2
15/01:30am 20.1 19.8 16.5 80 2.2 WSW 13 17 7 9 1019.7 - 0.2
15/01:00am 20.1 19.9 16.7 81 2.1 WSW 13 17 7 9 1019.7 - 0.2
15/12:30am 20.1 19.5 16.7 81 2.1 WSW 15 17 8 9 1019.6 - 0.2
15/12:00am 20.1 20.0 16.9 82 1.9 WSW 13 17 7 9 1019.6 1019.4 0.2
 
Date/Time
WST
Temp
°C
App
Temp
°C
Dew
Point
Rel
Hum
%
Delta-T
°C
Wind Press
QNH
hPa
Press
MSL
hPa
Rain
since 9 am
mm
Dir
 
Spd
km/h
Gust
km/h
Spd
kts
Gust
kts
14/11:30pm 20.7 21.9 17.3 81 2.1 SW 7 9 4 5 1019.6 - 0.2
14/11:00pm 20.9 22.1 17.3 80 2.2 SSW 7 9 4 5 1019.8 - 0.2
14/10:30pm 20.6 21.4 17.2 81 2.1 SSW 9 11 5 6 1020.0 - 0.2
14/10:00pm 20.8 20.9 17.4 81 2.1 SSW 13 17 7 9 1020.1 - 0.2
14/09:30pm 21.0 20.2 17.2 79 2.3 SSW 17 20 9 11 1020.1 - 0.2
14/09:00pm 21.1 20.6 17.7 81 2.1 SSW 17 20 9 11 1020.2 1020.0 0.2
14/08:30pm 21.0 20.9 17.8 82 2.0 SSW 15 20 8 11 1020.1 - 0.2
14/08:00pm 21.3 20.5 17.9 81 2.1 SSW 19 22 10 12 1019.9 - 0.2
14/07:30pm 21.4 20.6 18.4 83 1.9 SSW 20 26 11 14 1019.7 - 0.2
14/07:00pm 21.5 21.0 18.7 84 1.8 SSW 19 22 10 12 1019.5 - 0.2
14/06:30pm 21.5 21.4 18.7 84 1.8 SSW 17 20 9 11 1019.3 - 0.2
14/06:00pm 21.8 21.8 19.0 84 1.8 SW 17 20 9 11 1019.2 1019.0 0.2
14/05:30pm 22.2 22.2 19.0 82 2.0 SSW 17 20 9 11 1018.9 - 0.2
14/05:00pm 22.9 22.4 19.1 79 2.4 SW 20 24 11 13 1018.5 - 0.2
14/04:30pm 23.3 22.8 19.0 77 2.7 WSW 20 26 11 14 1018.4 - 0.2
14/04:00pm 23.4 22.8 18.9 76 2.9 SW 20 24 11 13 1018.3 - 0.2
14/03:30pm 24.0 23.3 18.6 72 3.4 WSW 20 24 11 13 1018.4 - 0.2
14/03:00pm 24.0 23.3 18.6 72 3.4 W 20 24 11 13 1018.4 1018.2 0.2
14/02:30pm 24.4 23.3 18.6 70 3.7 WSW 22 28 12 15 1018.3 - 0.2
14/02:00pm 24.7 23.8 18.2 67 4.1 W 20 26 11 14 1018.3 - 0.2
14/01:30pm 24.4 23.5 18.1 68 4.0 WSW 20 30 11 16 1018.5 - 0.2
14/01:00pm 24.3 23.2 18.7 71 3.6 W 22 28 12 15 1018.9 - 0.2
14/12:30pm 24.3 24.5 19.4 74 3.1 W 17 26 9 14 1019.4 - 0.2
14/12:00pm 24.0 24.3 19.5 76 2.9 W 17 20 9 11 1019.7 1019.5 0.2
14/11:30am 24.5 24.9 19.8 75 3.0 WNW 17 20 9 11 1019.9 - 0.2
14/11:00am 24.8 25.3 20.1 75 3.1 WNW 17 22 9 12 1019.8 - 0.2
14/10:30am 24.7 25.0 20.4 77 2.8 NNW 19 22 10 12 1019.7 - 0.2
14/10:00am 23.9 23.8 19.6 77 2.8 NNW 19 22 10 12 1019.6 - 0.2
14/09:30am 23.5 23.7 20.2 82 2.1 NNW 19 22 10 12 1019.6 - 0.2
14/09:00am 23.0 23.6 20.3 85 1.7 NNW 17 20 9 11 1019.7 1019.5 0.0
14/08:30am 23.0 24.8 20.3 85 1.7 NNW 11 17 6 9 1019.7 - 0.0
14/08:00am 22.2 24.9 21.4 95 0.5 NE 9 11 5 6 1019.5 - 0.0
14/07:30am 20.7 23.0 19.4 92 0.8 NE 6 7 3 4 1019.3 - 0.0
14/07:00am 20.7 21.5 19.0 90 1.1 NE 13 15 7 8 1018.8 - 0.0
14/06:30am 21.3 22.4 18.9 86 1.5 ENE 11 13 6 7 1018.3 - 0.0
14/06:00am 21.5 23.3 18.7 84 1.8 ENE 7 9 4 5 1018.2 1018.0 0.0
14/05:30am 21.4 23.6 19.3 88 1.3 ESE 6 7 3 4 1018.2 - 0.0
14/05:00am 21.5 24.8 20.8 96 0.5 S 4 7 2 4 1018.2 - 0.0
14/04:30am 21.5 24.7 21.3 99 0.1 SW 6 7 3 4 1018.0 - 0.0
14/04:00am 21.4 24.2 20.9 97 0.3 WSW 7 9 4 5 1017.8 - 0.0
14/03:30am 21.4 24.1 20.7 96 0.5 WSW 7 9 4 5 1017.9 - 0.0
14/03:00am 21.6 24.3 20.6 94 0.6 SSW 7 7 4 4 1017.9 1017.7 0.0
14/02:30am 21.7 23.9 20.5 93 0.8 S 9 11 5 6 1018.0 - 0.0
14/02:00am 21.3 23.0 20.1 93 0.8 SSW 11 13 6 7 1018.3 - 0.0
14/01:30am 21.3 22.2 20.1 93 0.8 SSW 15 15 8 8 1018.4 - 0.0
14/01:00am 21.4 22.8 20.4 94 0.6 S 13 15 7 8 1018.6 - 0.0
14/12:30am 21.3 22.1 19.9 92 0.9 S 15 17 8 9 1018.7 - 0.0
14/12:00am 21.3 21.5 20.1 93 0.8 S 19 20 10 11 1018.7 1018.5 0.0
 
Date/Time
WST
Temp
°C
App
Temp
°C
Dew
Point
Rel
Hum
%
Delta-T
°C
Wind Press
QNH
hPa
Press
MSL
hPa
Rain
since 9 am
mm
Dir
 
Spd
km/h
Gust
km/h
Spd
kts
Gust
kts
13/11:30pm 21.5 21.7 20.1 92 0.9 SSW 19 20 10 11 1018.9 - 0.0
13/11:00pm 21.5 21.8 20.3 93 0.8 S 19 20 10 11 1019.1 - 0.0
13/10:30pm 21.5 22.0 20.1 92 0.9 S 17 19 9 10 1019.3 - 0.0
13/10:00pm 21.9 22.4 20.0 89 1.2 S 17 20 9 11 1019.3 - 0.0
13/09:30pm 22.0 21.9 19.9 88 1.3 S 20 22 11 12 1019.3 - 0.0
13/09:00pm 22.0 22.1 19.9 88 1.3 S 19 20 10 11 1019.3 1019.1 0.0
13/08:30pm 22.1 21.9 19.3 84 1.8 S 19 22 10 12 1019.1 - 0.0
13/08:00pm 22.1 21.9 19.3 84 1.8 S 19 22 10 12 1019.0 - 0.0
13/07:30pm 22.4 21.9 19.2 82 2.0 S 20 24 11 13 1018.9 - 0.0
13/07:00pm 22.5 22.0 19.1 81 2.2 S 20 24 11 13 1018.7 - 0.0

Other Formats:

Comma delimited format used in spreadsheet applications
http://www.bom.gov.au/fwo/IDW60801/IDW60801.94602.axf

JavaScript Object Notation format (JSON) in row-major order
http://www.bom.gov.au/fwo/IDW60801/IDW60801.94602.json